Time,B instrument,Bx,By,Bz,sigma B,Ion instrument,Status,Tp_par,Tp_perp,carrot,r_sun,clat,clong,earth_he_angle,n_p,vp_x,vp_y,vp_z,vth_p_par,vth_p_perp
1980-01-04 00:18:34,-1,nan,nan,nan,nan,1,3,nan,nan,1690,0.77142316,4.6047821,199.10303,293.40771,nan,439.219,-8.00381,-4.48332,nan,nan
1980-01-04 01:01:46,-1,nan,nan,nan,nan,1,3,nan,nan,1690,0.77168298,4.6014853,198.71191,293.41113,nan,452.05,-6.68804,-55.8213,nan,nan
1980-01-04 01:44:59,-1,nan,nan,nan,nan,1,3,nan,nan,1690,0.7719425,4.5981894,198.3208,293.41455,nan,434.534,23.4756,33.3584,nan,nan
1980-01-04 02:28:11,-1,nan,nan,nan,nan,1,3,nan,nan,1690,0.77220798,4.5948172,197.92993,293.41821,nan,408.23,-29.0999,-6.58033,nan,nan
1980-01-04 03:11:23,-1,nan,nan,nan,nan,1,3,nan,nan,1690,0.7724672,4.5915222,197.53882,293.42163,nan,446.342,57.7046,82.6219,nan,nan
1980-01-04 03:54:35,-1,nan,nan,nan,nan,1,3,nan,nan,1690,0.7727263,4.5882254,197.14771,293.42505,nan,493.986,58.2689,61.0895,nan,nan
1980-01-04 04:37:47,-1,nan,nan,nan,nan,1,4,nan,nan,1690,0.77298516,4.5849304,196.75659,293.42847,nan,nan,nan,nan,nan,nan
1980-01-04 05:20:59,-1,nan,nan,nan,nan,1,3,nan,nan,1690,0.7732439,4.5816374,196.36548,293.43188,nan,444.044,-20.0316,-44.2664,nan,nan
1980-01-04 06:47:23,-1,nan,nan,nan,nan,1,3,nan,nan,1690,0.77376682,4.5749769,195.5791,293.43848,nan,497.57,-22.5942,1.56756,nan,nan
1980-01-04 08:13:47,-1,nan,nan,nan,nan,1,3,nan,nan,1690,0.77428305,4.5683937,194.79663,293.44507,nan,462.498,3.83984,2.42212,nan,nan
1980-01-04 08:56:59,-1,nan,nan,nan,nan,1,3,nan,nan,1690,0.7745409,4.5651016,194.40527,293.44824,nan,434.868,5.72946,5.3075,nan,nan
1980-01-04 09:40:11,-1,nan,nan,nan,nan,1,3,nan,nan,1690,0.77480453,4.5617361,194.01416,293.45166,nan,447.245,-0.930095,-21.1732,nan,nan
1980-01-04 11:10:38,-1,nan,nan,nan,nan,1,4,nan,nan,1690,0.77527267,4.5318117,193.11777,293.37949,nan,nan,nan,nan,nan,nan
1980-01-04 11:11:59,-1,nan,nan,nan,nan,1,3,nan,nan,1690,0.77534926,4.5547752,193.18115,293.4585,nan,429.906,12.4241,-25.2661,nan,nan
1980-01-04 11:13:03,-1,nan,nan,nan,nan,1,3,nan,nan,1690,0.77536124,4.5546227,193.17334,293.4585,nan,429.55,6.38218,-28.9677,nan,nan
1980-01-04 11:13:43,2,-8.25,-7.11,4.165,0.890632,1,1,33361.3,37288.1,1690,0.77536124,4.5546227,193.16553,293.4585,2.21364,435.482,14.9092,-27.8035,23.4682,24.8109
1980-01-04 11:14:24,2,-7.91,-6.078,4.33,0.194977,1,1,71873.5,42230.3,1690,0.7753672,4.5545454,193.16187,293.45874,2.43615,427.094,10.172,-26.5312,34.4463,26.404
1980-01-04 11:15:45,-1,nan,nan,nan,nan,1,3,nan,nan,1690,0.77537322,4.5544691,193.15015,293.45874,nan,433.355,3.74025,-21.6065,nan,nan
1980-01-04 11:17:06,2,-8.42,-7.98,5.145,1.98215,1,1,86509.1,48690.1,1690,0.77538514,4.5543165,193.13477,293.45898,2.6232,432.288,6.23166,-22.8888,37.791,28.3517
1980-01-04 11:17:46,2,-7.43167,-6.33667,4.99667,0.257601,1,1,42192.5,39115.3,1690,0.77538514,4.5543165,193.13086,293.45898,2.27829,434.795,9.32518,-25.1276,26.3922,25.4115
1980-01-04 11:18:27,2,-7.336,-6.052,5.39,0.284746,1,1,99129.6,56097.3,1690,0.77539116,4.5542402,193.12305,293.45898,3.08707,434.544,7.49878,-21.5807,40.4538,30.4319
1980-01-04 11:19:07,1,-7.95625,-5.75625,3.975,0.357836,1,1,52296.5,42309.7,1690,0.77539712,4.5541639,193.11914,293.45898,2.80258,432.535,8.06142,-22.4914,29.3829,26.4288
1980-01-04 11:19:48,-1,nan,nan,nan,nan,1,-3,nan,nan,1690,0.77539712,4.5541639,193.11133,293.45898,nan,422.798,4.97374,-24.7683,nan,nan
1980-01-04 11:20:28,1,-8.3,-5.775,3.58125,0.214239,1,1,44865.9,43730.4,1690,0.77540308,4.5540876,193.10767,293.45923,2.63051,433.557,12.0151,-22.3974,27.2155,26.8689
1980-01-04 11:21:09,1,-8.3375,-5.66875,3.475,0.242626,1,1,75702.2,44450.1,1690,0.7754091,4.5540104,193.09985,293.45923,2.54877,425.429,8.53849,-23.1565,35.3519,27.0891
1980-01-04 11:21:49,1,-8.075,-5.7125,2.925,0.282566,1,1,46582.3,42593.2,1690,0.7754091,4.5540104,193.09204,293.45923,2.74937,433.894,10.627,-25.5669,27.7312,26.5172
1980-01-04 11:22:30,1,-8.3,-5.71333,2.78,0.418038,1,1,53399.1,50560.6,1690,0.77541506,4.5539341,193.08813,293.45923,2.79493,424.677,9.83726,-27.0482,29.691,28.8911
1980-01-04 11:23:10,1,-8.38,-5.47333,2.91333,0.302288,1,1,47857.8,45688.4,1690,0.77542102,4.5538578,193.08032,293.45923,2.58893,432.925,13.8463,-25.3735,28.1083,27.4638
1980-01-04 11:23:51,1,-7.5375,-5.675,4.325,0.73644,1,1,81951.0,71016.2,1690,0.77542102,4.5538578,193.07642,293.45923,3.07435,440.487,11.9679,-12.2843,36.782,34.2402
1980-01-04 11:24:31,1,-7.82941,-5.66471,3.80588,0.665252,1,1,59083.6,54135.8,1690,0.77542704,4.5537815,193.06885,293.45947,2.69599,435.894,10.301,-16.6843,31.2314,29.8951
1980-01-04 11:26:33,1,-6.79333,-4.94,4.26,0.80752,1,1,57037.1,45919.6,1690,0.77543896,4.5536289,193.04932,293.45947,2.6837,428.423,7.13392,-27.2511,30.6857,27.5332
1980-01-04 11:27:13,1,-6.45333,-5.62667,3.94,1.06717,1,1,60923.2,72447.9,1690,0.77544498,4.5535517,193.04565,293.45972,2.80117,436.134,-0.172611,-12.2873,31.7139,34.5836
1980-01-04 11:27:54,1,-7.46875,-5.44375,2.33125,1.07553,1,1,73087.9,51304.0,1690,0.77544498,4.5535517,193.03784,293.45972,2.38143,431.788,0.329931,-20.3831,34.7361,29.1027
1980-01-04 11:28:34,1,-7.16875,-6.0,1.71875,0.91579,1,1,51884.4,58074.0,1690,0.77545094,4.5534754,193.03394,293.45972,3.11902,434.204,-8.92395,-30.3684,29.2669,30.9634
1980-01-04 12:05:27,1,-10.4,3.0,-1.3,0.0,1,1,47451.5,38394.9,1690,0.7756722,4.5506477,192.69678,293.4624,2.29728,439.854,71.4813,-33.8161,27.9887,25.1765
1980-01-04 12:06:08,-1,nan,nan,nan,nan,1,4,nan,nan,1690,0.77567816,4.5505714,192.69287,293.4624,nan,nan,nan,nan,nan,nan
1980-01-04 12:07:30,1,-10.5,2.2375,-1.3,0.297647,1,1,31743.0,35616.1,1690,0.77568412,4.5504942,192.6814,293.46265,2.1352,454.15,1.68146,-35.1264,22.8919,24.2483
1980-01-04 12:08:10,1,-10.4,2.525,-1.35,0.325,1,1,73827.8,37321.1,1690,0.77569008,4.5504179,192.67358,293.46265,2.06624,457.431,5.21944,-36.4583,34.9114,24.8219
1980-01-04 12:09:31,-1,nan,nan,nan,nan,1,4,nan,nan,1690,0.7756961,4.5503416,192.66187,293.46265,nan,nan,nan,nan,nan,nan
1980-01-04 12:10:12,-1,nan,nan,nan,nan,1,4,nan,nan,1690,0.77570206,4.5502653,192.6543,293.46289,nan,nan,nan,nan,nan,nan
1980-01-04 12:10:52,1,-10.1176,3.30588,-1.86471,0.34581,1,1,81985.3,36655.3,1690,0.77570206,4.5502653,192.65039,293.46289,2.00393,452.123,6.15234,-36.1079,36.7897,24.5995
1980-01-04 12:11:33,1,-10.3625,2.625,-1.875,0.427017,1,1,32306.2,13934.3,1690,0.77570802,4.550189,192.64258,293.46289,2.60839,448.407,30.5347,-45.8424,23.0941,15.167
1980-01-04 12:12:54,1,-10.18,0.8,-2.34,0.28519,1,1,26366.5,26029.3,1690,0.77571398,4.5501118,192.63086,293.46289,1.91246,456.413,7.38972,-35.1765,20.8633,20.7295
1980-01-04 12:13:34,1,-10.3438,2.04375,-1.85,0.383956,1,1,49630.5,43580.7,1690,0.77572,4.5500355,192.62305,293.46289,1.89893,451.195,9.62524,-34.5139,28.6241,26.8229
1980-01-04 12:14:15,1,-10.26,2.12,-2.12667,0.458209,1,1,33674.8,11922.5,1690,0.77572596,4.5499592,192.61938,293.46313,4.34562,446.369,33.0506,-46.9749,23.5782,14.0295
1980-01-04 12:14:55,1,-10.3176,1.94118,-2.44706,0.238653,1,1,10926.6,28804.9,1690,0.77572596,4.5499592,192.61157,293.46313,2.33646,455.519,17.2525,-32.9861,13.4308,21.8067
1980-01-04 12:16:16,1,-10.2857,1.8,-2.39286,0.283653,1,1,48654.4,44534.8,1690,0.77573788,4.5498066,192.59985,293.46313,2.07887,463.482,23.7385,-36.9837,28.3413,27.1149
1980-01-04 12:16:57,1,-10.1471,2.13529,-2.89412,0.238942,1,1,29984.7,32127.8,1690,0.77573788,4.5498066,192.59204,293.46313,1.94038,456.334,21.0502,-39.3114,22.2489,23.0302
1980-01-04 12:17:37,1,-10.2706,1.97647,-2.25882,0.406351,1,1,14175.6,31716.9,1690,0.7757439,4.5497303,192.58838,293.46338,1.91448,455.418,20.4887,-34.8091,15.2978,22.8825
1980-01-04 12:18:18,1,-10.25,1.69375,-1.48125,0.284358,1,1,142542.0,2235.11,1690,0.77574986,4.549654,192.58057,293.46338,0.336912,456.354,17.6086,-35.4565,48.5097,6.07446
1980-01-04 12:18:58,1,-10.3562,1.2625,-1.4,0.247092,1,1,81207.7,46862.7,1690,0.77574986,4.5496531,192.57666,293.46338,2.15861,461.746,16.6937,-35.0599,36.6148,27.8145
1980-01-04 12:19:39,1,-10.2765,1.53529,-2.31176,0.336684,1,1,47350.4,5063.22,1690,0.77575582,4.5495768,192.56885,293.46338,1.06885,441.306,18.0159,-45.8338,27.9589,9.14263
1980-01-04 12:20:19,1,-10.3,1.7,-2.06471,0.242393,1,1,86495.5,48934.9,1690,0.77576178,4.5495005,192.56519,293.46362,2.23289,465.982,19.3725,-36.7918,37.7881,28.4228
1980-01-04 12:21:00,1,-10.2,1.65625,-2.31875,0.401851,1,1,34958.5,13058.9,1690,0.77576774,4.5494242,192.55737,293.46362,3.6662,454.757,2.88926,-46.2116,24.0234,14.6829
1980-01-04 12:21:40,1,-10.2,1.64375,-2.0,0.3259,1,1,96462.8,45496.4,1690,0.77576774,4.5494242,192.54956,293.46362,2.21733,464.86,17.7482,-37.3806,39.906,27.4061
1980-01-04 12:22:21,1,-10.0188,2.21875,-2.76875,0.360826,1,1,37714.6,15992.3,1690,0.77577376,4.5493479,192.54565,293.46362,2.47514,452.784,31.8864,-47.7295,24.9524,16.2485
1980-01-04 12:23:01,1,-10.0188,2.00625,-2.325,0.278809,1,1,83963.5,44414.1,1690,0.77577972,4.5492716,192.53784,293.46362,2.3623,467.692,19.2172,-37.2535,37.2309,27.0781
1980-01-04 12:23:41,1,-10.075,1.7375,-2.475,0.29554,1,1,32246.1,31926.4,1690,0.77577972,4.5492716,192.53394,293.46362,1.74907,457.483,21.3219,-38.9729,23.0726,22.9579
1980-01-04 12:26:05,1,-10.1818,1.93636,-2.49091,0.39207,1,1,35124.2,37940.6,1690,0.77579767,4.5490417,192.51074,293.46387,1.69506,472.303,-4.67229,-41.5543,24.0802,25.0271
1980-01-04 12:26:24,1,-10.0727,2.00909,-2.82727,0.385266,1,1,31827.3,30309.7,1690,0.77572572,4.5261359,192.42804,293.38507,1.8416,456.602,12.5663,-39.8359,22.9223,22.3691
1980-01-04 12:26:45,1,-9.86364,2.25455,-3.04545,0.406761,1,1,79726.7,45070.9,1690,0.77579767,4.5490417,192.50293,293.46387,2.317,469.487,19.259,-37.6303,36.2794,27.2776
1980-01-04 12:27:04,1,-9.82727,2.54545,-3.00909,0.269373,1,1,116238.0,44823.8,1690,0.77580363,4.5489655,192.50317,293.46411,2.48534,470.64,18.5139,-35.3773,43.8059,27.2027
1980-01-04 12:27:45,1,-9.87143,2.0,-3.12857,0.413793,1,1,29784.6,29549.4,1690,0.77580363,4.5489655,192.49536,293.46411,1.68995,457.96,18.6534,-37.8486,22.1745,22.0868
1980-01-04 12:28:25,1,-9.975,2.2375,-2.85,0.420379,1,1,112803.0,44989.0,1690,0.77580959,4.5488892,192.49146,293.46411,2.72775,469.069,16.1056,-35.8425,43.1536,27.2528
1980-01-04 12:29:06,1,-9.95882,1.92353,-2.87059,0.29576,1,1,32537.2,32509.6,1690,0.77581555,4.5488129,192.48364,293.46411,1.63101,456.842,14.3856,-38.9425,23.1765,23.1667
1980-01-04 12:29:46,1,-10.0059,1.94118,-2.91765,0.269563,1,1,119425.0,42847.5,1690,0.77581555,4.5488129,192.47583,293.46411,2.45549,465.993,16.3724,-38.126,44.4023,26.5963
1980-01-04 12:30:27,1,-10.025,1.39375,-3.13125,0.273147,1,1,33050.8,34551.3,1690,0.77582157,4.5487366,192.47217,293.46436,1.87133,457.57,10.2489,-40.756,23.3587,23.8831
1980-01-04 12:31:07,1,-9.89412,1.36471,-3.24118,0.412269,1,1,94649.7,35138.5,1690,0.77582753,4.5486593,192.46436,293.46436,2.67093,472.965,17.5829,-36.8917,39.5292,24.0852
1980-01-04 12:31:48,1,-9.69375,1.01875,-3.35,0.342212,1,1,47559.0,35195.5,1690,0.77582753,4.5486593,192.46045,293.46436,1.78408,459.784,3.935,-39.4714,28.0204,24.1047
1980-01-04 12:32:28,1,-9.79375,0.64375,-3.39375,0.333366,1,1,131879.0,31635.8,1690,0.77583349,4.548583,192.45264,293.46436,2.95178,473.831,11.816,-34.0975,46.6601,22.8532
1980-01-04 12:33:09,1,-9.47059,1.40588,-3.87647,0.352745,1,1,54110.2,32439.4,1690,0.77583945,4.5485067,192.44873,293.46436,1.8874,459.566,3.99437,-42.0992,29.8881,23.1417
1980-01-04 12:33:49,1,-9.36471,1.95294,-3.71765,0.36347,1,1,115074.0,36143.3,1690,0.77583945,4.5485067,192.44092,293.46436,2.86438,478.045,15.3789,-34.9158,43.586,24.4271
1980-01-04 12:34:30,1,-9.54375,1.65625,-3.40625,0.364702,1,1,34822.2,36090.0,1690,0.77584541,4.5484304,192.43335,293.4646,1.66119,461.577,14.6157,-38.3823,23.9765,24.4091
1980-01-04 12:35:10,1,-9.66875,1.4125,-3.3375,0.659042,1,1,113491.0,43577.4,1690,0.77585143,4.5483541,192.42944,293.4646,2.74649,472.805,15.5578,-36.382,43.2851,26.8219
1980-01-04 12:35:51,1,-9.39412,2.13529,-3.57647,0.288895,1,1,30699.9,32364.3,1690,0.77585143,4.5483541,192.42163,293.4646,1.72468,460.371,22.5937,-39.4012,22.5126,23.1148
1980-01-04 12:36:31,-1,nan,nan,nan,nan,1,4,nan,nan,1690,0.77585739,4.5482779,192.41772,293.4646,nan,nan,nan,nan,nan,nan
1980-01-04 12:37:12,1,-9.2625,-1.28125,-2.55,1.82555,1,1,32778.4,17814.0,1690,0.77586335,4.5482006,192.41016,293.46484,2.72708,447.317,1.61915,-48.9962,23.2623,17.149
1980-01-04 12:37:52,1,-9.16875,-2.20625,-2.11875,0.549325,1,1,391666.0,68303.8,1690,0.77586335,4.5482006,192.40234,293.46484,3.83233,439.821,20.0784,-55.723,80.4111,33.58
1980-01-04 12:38:33,1,-8.82941,-1.74706,-2.07647,0.307575,1,1,308708.0,53280.9,1690,0.77586931,4.5481243,192.39844,293.46484,3.76531,432.043,18.1934,-53.7251,71.389,29.6581
1980-01-04 12:39:13,-1,nan,nan,nan,nan,1,4,nan,nan,1690,0.77587533,4.548048,192.39063,293.46484,nan,nan,nan,nan,nan,nan
1980-01-04 12:40:34,1,-8.65294,-1.35882,-2.28824,0.339652,1,1,357121.0,80456.5,1690,0.77588129,4.5479717,192.37915,293.46509,4.65831,435.529,24.5176,-52.7368,76.7831,36.445
1980-01-04 12:41:15,1,-8.54118,-0.8,-2.22353,0.375089,1,1,231348.0,59043.9,1690,0.77588725,4.5478954,192.37524,293.46509,4.12421,431.322,21.4339,-46.6768,61.8003,31.2209
1980-01-04 12:41:55,1,-8.5875,-0.18125,-3.0625,0.430071,1,1,93725.6,74455.9,1690,0.77588725,4.5478954,192.36743,293.46509,3.05334,432.971,30.167,-57.2412,39.3357,35.0596
1980-01-04 12:42:36,1,-8.525,-1.71875,-2.48125,0.312125,1,1,106409.0,70015.3,1690,0.77589321,4.5478191,192.35962,293.46509,3.23117,440.92,16.3142,-53.8075,41.9128,33.9981
1980-01-04 12:43:57,1,-7.71333,-2.18667,-1.86667,0.786893,1,1,87043.6,52740.8,1690,0.77589923,4.5477419,192.3479,293.46509,2.91898,441.198,9.61683,-49.2755,37.9076,29.5074
1980-01-04 12:44:37,1,-7.75,-2.75625,-2.0375,0.412074,1,1,77290.8,77687.6,1690,0.77590519,4.5476656,192.34424,293.46533,2.57835,441.183,6.03735,-53.5839,35.7209,35.8124
1980-01-04 12:45:18,1,-7.55625,-3.5125,-2.10625,0.523584,1,1,80588.3,62330.4,1690,0.77591115,4.5475893,192.33643,293.46533,2.43069,448.382,2.92667,-53.2619,36.4749,32.078
1980-01-04 12:45:58,1,-7.88824,-2.77059,-2.75882,0.469926,1,1,134994.0,63685.2,1690,0.77591115,4.5475893,192.33252,293.46533,2.32153,447.231,14.3236,-61.9381,47.208,32.4248
1980-01-04 12:46:39,1,-7.89333,-0.466667,-1.17333,1.33546,1,1,93368.3,20856.9,1690,0.77591711,4.547513,192.32471,293.46533,2.42794,439.91,35.3786,-44.8942,39.2607,18.5559
1980-01-04 12:47:19,1,-7.91875,-1.50625,-1.325,0.76908,1,1,100617.0,49820.0,1690,0.77592307,4.5474367,192.31714,293.46558,2.06204,438.912,19.5017,-45.1856,40.7563,28.6787
1980-01-04 12:48:00,1,-8.075,-1.6,-0.99375,0.393651,1,1,48226.6,16247.3,1690,0.77592909,4.5473604,192.31323,293.46558,2.8614,440.976,3.18782,-48.3746,28.2164,16.3775
1980-01-04 12:48:40,1,-8.04118,-1.05882,-0.0529412,0.659978,1,1,65066.5,41010.8,1690,0.77592909,4.5473604,192.30542,293.46558,2.00249,440.744,19.8814,-39.3322,32.7745,26.02
1980-01-04 12:49:21,1,-7.87333,-1.63333,-1.11333,0.338625,1,1,51481.5,18941.5,1690,0.77593505,4.5472832,192.30151,293.46558,2.39525,440.745,3.93966,-47.3719,29.153,17.6834
1980-01-04 12:50:01,1,-7.9125,-2.15625,-0.41875,0.649098,1,1,77128.8,55615.0,1690,0.77594101,4.5472069,192.29395,293.46582,2.15526,444.903,5.1357,-31.7994,35.6834,30.3008
1980-01-04 12:50:42,1,-7.73125,-2.7,-1.30625,0.382733,1,1,62107.5,30606.0,1690,0.77594101,4.5472069,192.28613,293.46582,2.24131,443.756,3.37101,-46.9757,32.0206,22.4782
1980-01-04 12:52:03,1,-7.65333,-2.78667,-1.0,1.58818,1,1,56597.4,34780.4,1690,0.77595299,4.5470543,192.27441,293.46582,2.18346,445.312,6.97074,-45.8032,30.5672,23.9621
1980-01-04 12:52:43,1,-8.14375,-3.34375,-0.4125,0.525372,1,1,84925.4,43956.8,1690,0.77595299,4.5470543,192.27051,293.46582,1.95865,445.241,3.54907,-37.596,37.4435,26.9383
1980-01-04 12:54:04,1,-7.72353,-4.05294,-0.0235294,0.487703,1,1,158194.0,46349.5,1690,0.77596492,4.5469017,192.25903,293.46606,2.34048,449.476,-0.108409,-39.7003,51.1038,27.6618
1980-01-04 12:54:45,-1,nan,nan,nan,nan,1,4,nan,nan,1690,0.77596492,4.5469017,192.25122,293.46606,nan,nan,nan,nan,nan,nan
1980-01-04 12:55:25,1,-7.84375,-3.075,-1.85,0.887742,1,1,91890.6,77900.9,1690,0.77597088,4.5468245,192.24341,293.46606,2.36326,447.757,0.566984,-54.4073,38.9487,35.8616
1980-01-04 12:56:06,1,-7.9375,-3.5875,-0.9625,0.635044,1,1,53291.0,38784.6,1690,0.7759769,4.5467482,192.2395,293.46606,2.20139,446.437,-0.0372407,-44.2057,29.6609,25.3039
1980-01-04 12:56:46,1,-7.80625,-3.0875,-3.1875,0.523472,1,1,101973.0,74090.3,1690,0.7759769,4.5467482,192.23169,293.46606,2.06206,450.62,0.322137,-60.7267,41.0298,34.9735
1980-01-04 12:57:27,1,-7.64118,-3.44706,-2.4,1.17382,1,1,76980.4,59179.9,1690,0.77598286,4.5466719,192.22803,293.46631,2.59332,445.393,-0.535424,-53.1213,35.6491,31.2568
1980-01-04 12:58:07,1,-7.21875,-3.2125,-0.40625,0.987777,1,1,259669.0,59824.4,1690,0.77598882,4.5465956,192.22021,293.46631,2.75386,456.277,-2.32744,-21.141,65.4738,31.4266
1980-01-04 12:58:48,1,-7.30625,-2.41875,-1.0875,0.575068,1,1,73146.8,50237.9,1690,0.77598882,4.5465956,192.21631,293.46631,1.53603,453.837,7.37195,-57.7127,34.7501,28.7987
1980-01-04 12:59:28,1,-7.97647,-1.96471,0.00588235,0.63333,1,1,103291.0,52187.1,1690,0.77599478,4.5465193,192.2085,293.46631,2.08167,448.502,9.67633,-40.7717,41.2942,29.3521
1980-01-04 13:00:09,1,-8.14,-1.36667,0.566667,0.744879,1,1,49411.0,37570.3,1690,0.7760008,4.546443,192.20093,293.46655,1.80169,450.802,6.6355,-30.7682,28.5608,24.9046
1980-01-04 13:00:49,1,-7.61765,-1.74118,-0.0882353,0.547912,1,1,101913.0,56083.3,1690,0.7760008,4.546442,192.19702,293.46655,1.84534,446.541,5.95544,-37.139,41.0179,30.4281
1980-01-04 13:01:30,1,-7.44667,-0.373333,0.2,0.251219,1,1,58242.0,39524.8,1690,0.77600676,4.5463657,192.18921,293.46655,1.40098,452.169,9.89735,-36.7407,31.0082,25.5442
1980-01-04 13:02:10,1,-7.30625,-0.375,0.75,1.16938,1,1,83284.8,52109.5,1690,0.77601272,4.5462894,192.1853,293.46655,1.82164,442.169,23.2582,-34.2176,37.0801,29.3303
1980-01-04 13:02:51,1,-7.07333,-0.333333,1.02,0.465236,1,1,79265.5,39688.4,1690,0.77601272,4.5462894,192.17749,293.46655,1.88028,445.286,11.2752,-31.4073,36.1743,25.597
1980-01-04 13:03:31,1,-7.29375,0.1125,0.93125,0.422881,1,1,62656.9,48354.1,1690,0.77601868,4.5462132,192.16968,293.46655,1.90994,440.842,16.0034,-36.4116,32.1619,28.2536
1980-01-04 13:04:12,1,-7.53125,0.525,0.25,0.294149,1,1,71246.1,47988.6,1690,0.77602464,4.5461369,192.16602,293.4668,1.79578,446.734,23.6613,-37.7727,34.2956,28.1467
1980-01-04 13:04:52,1,-7.47647,0.335294,-1.02353,0.56983,1,1,66142.7,45655.4,1690,0.77602464,4.5461369,192.1582,293.4668,1.73065,436.445,18.6079,-50.3137,33.0445,27.4539
1980-01-04 13:05:33,1,-7.48,0.906667,-0.06,0.513117,1,1,117294.0,53191.9,1690,0.7760306,4.5460606,192.1543,293.4668,2.16016,442.035,24.953,-43.2441,44.0044,29.6333
1980-01-04 13:06:53,1,-6.55333,-0.6,-0.826667,0.486256,1,1,106100.0,61276.8,1690,0.77603656,4.5459843,192.14258,293.4668,1.90242,450.327,10.858,-44.8262,41.852,31.8058
1980-01-04 13:07:33,1,-6.19375,-0.86875,-1.5,0.314618,1,1,59631.4,73761.0,1690,0.77604258,4.545907,192.13501,293.46704,1.84579,435.483,7.42205,-49.8624,31.3758,34.8957
1980-01-04 13:08:14,1,-6.2,-0.69375,-1.675,0.393651,1,1,105688.0,61886.5,1690,0.77604854,4.5458307,192.1272,293.46704,2.40929,443.591,16.4832,-47.9503,41.7707,31.9636
1980-01-04 13:08:54,1,-6.00588,-1.23529,-1.47059,0.710573,1,1,44755.5,58000.2,1690,0.77604854,4.5458307,192.12329,293.46704,1.94559,435.535,9.13423,-45.8751,27.182,30.9437
1980-01-04 13:09:36,1,-6.03125,-0.16875,-2.5625,1.17384,1,1,152974.0,74705.0,1690,0.7760545,4.5457544,192.11548,293.46704,2.53589,445.684,10.5575,-50.7258,50.2536,35.1182
1980-01-04 13:10:16,1,-6.30588,0.105882,-2.72353,0.50465,1,1,33520.5,68176.1,1690,0.77606046,4.5456781,192.11182,293.46729,1.68973,437.669,17.0006,-71.3045,23.5241,33.5486
1980-01-04 13:10:57,1,-6.35333,0.706667,-2.29333,0.396316,1,1,142659.0,83980.1,1690,0.77606046,4.5456781,192.104,293.46729,2.56171,446.673,23.497,-50.9299,48.5297,37.2346
1980-01-04 13:12:18,1,-5.9625,-0.1375,-3.125,1.12375,1,1,40602.7,68188.2,1690,0.77607238,4.5455256,192.09229,293.46729,1.96729,442.373,4.3413,-70.1669,25.8902,33.5515
1980-01-04 13:13:39,1,-5.33125,-1.4375,-3.95,0.445244,1,1,83361.6,37166.1,1690,0.7760784,4.5454493,192.08057,293.46729,2.27008,452.313,0.555818,-74.3181,37.0972,24.7703
1980-01-04 13:14:19,1,-5.53125,-0.15,-3.1375,0.365024,1,1,63409.6,74924.8,1690,0.77608436,4.545372,192.073,293.46753,2.24179,440.274,13.66,-68.8594,32.3545,35.1699
1980-01-04 13:15:00,1,-5.85625,-0.46875,-3.55,0.435442,1,1,81070.0,24915.3,1690,0.77609032,4.5452957,192.06909,293.46753,2.1415,446.629,1.91194,-71.1461,36.5837,20.2811
1980-01-04 13:15:40,1,-5.54118,-0.0764706,-3.82941,0.434339,1,1,69400.0,68527.2,1690,0.77609032,4.5452957,192.06128,293.46753,2.49459,446.607,17.9013,-77.786,33.8484,33.6348
1980-01-04 13:16:21,1,-5.575,-0.55,-3.56875,0.35039,1,1,42612.3,45983.9,1690,0.77609628,4.5452194,192.05347,293.46753,1.93408,446.031,5.8326,-79.1731,26.5232,27.5525
1980-01-04 13:17:01,1,-5.71765,0.2,-3.62353,0.921485,1,1,44302.9,67736.9,1690,0.77610224,4.5451431,192.0498,293.46777,2.04467,442.731,17.2104,-74.8053,27.0442,33.4403
1980-01-04 13:17:42,1,-5.35333,2.56,-3.74,1.36941,1,1,69066.0,41183.8,1690,0.77610224,4.5451431,192.04199,293.46777,2.18265,445.506,32.5689,-72.2695,33.7668,26.0748
1980-01-04 13:18:22,1,-6.28125,-0.15625,-3.89375,0.472568,1,1,86145.8,43541.0,1690,0.77610821,4.5450668,192.03809,293.46777,2.05141,442.209,15.9474,-69.7727,37.7116,26.8106
1980-01-04 13:19:03,1,-6.08,-0.206667,-3.86,0.428123,1,1,37296.1,49906.3,1690,0.77611417,4.5449905,192.03027,293.46777,2.0655,445.442,13.5891,-76.6015,24.8136,28.7035
1980-01-04 13:19:43,1,-6.1625,-0.4,-3.7,0.372282,1,1,67484.1,60697.0,1690,0.77611417,4.5449905,192.02637,293.46777,2.16398,443.593,13.28,-75.5908,33.3779,31.655
1980-01-04 13:20:24,1,-6.23125,-0.86875,-3.29375,0.485935,1,1,79677.2,26236.9,1690,0.77612019,4.5449142,192.0188,293.46802,2.17497,447.509,2.17104,-69.498,36.2681,20.812
1980-01-04 13:21:04,1,-6.27647,-0.676471,-3.16471,0.648074,1,1,96881.1,24562.9,1690,0.77612615,4.544837,192.01099,293.46802,2.2877,448.207,15.2331,-63.3464,39.9924,20.1371
1980-01-04 13:21:45,1,-6.09375,-0.63125,-3.0875,0.355427,1,1,86711.4,24216.6,1690,0.77612615,4.544837,192.00708,293.46802,2.40455,448.62,2.06539,-67.6575,37.8352,19.9947
1980-01-04 13:23:06,1,-6.1875,-0.4625,-3.38125,0.337211,1,1,41389.0,52410.9,1690,0.77613807,4.5446844,191.99536,293.46802,1.93443,444.487,12.4772,-76.8781,26.1397,29.415
1980-01-04 13:23:46,1,-6.51765,-0.958824,-2.43529,0.403274,1,1,49873.5,70071.9,1690,0.77613807,4.5446844,191.98755,293.46802,2.00857,433.475,1.42907,-59.8916,28.6941,34.0118
1980-01-04 13:24:27,1,-6.82667,-0.926667,-2.84,0.385976,1,1,77431.4,79712.2,1690,0.77614403,4.5446081,191.98389,293.46826,2.57135,442.955,4.83765,-62.2036,35.7533,36.2761
1980-01-04 13:25:07,1,-7.0375,-0.5375,-3.14375,0.650691,1,1,110950.0,46510.5,1690,0.77614999,4.5445318,191.97607,293.46826,2.01372,446.196,11.7587,-63.8436,42.7977,27.7098
1980-01-04 13:25:48,1,-7.25625,-1.95,-1.6125,0.435666,1,1,68539.1,46490.2,1690,0.77614999,4.5445318,191.96826,293.46826,1.99471,447.859,-8.45089,-41.5229,33.6378,27.7037
1980-01-04 13:26:28,2,-6.98167,-2.78667,-0.0633333,0.398654,1,1,78529.5,50658.9,1690,0.77615595,4.5444555,191.96436,293.46826,2.09919,443.456,-14.5414,-34.3963,36.006,28.9192
1980-01-04 13:27:09,2,-7.114,-2.228,-0.08,0.29759,1,1,61248.3,48045.3,1690,0.77616197,4.5443792,191.95679,293.46851,2.23609,448.388,-11.5548,-33.4393,31.7984,28.1633
1980-01-04 13:27:49,2,-7.36,-1.542,0.354,0.111893,1,1,116728.0,53898.1,1690,0.77616197,4.5443783,191.95288,293.46851,2.50246,451.734,-1.95854,-28.9089,43.8981,29.8294
1980-01-04 13:28:30,2,-7.366,-1.384,0.524,0.188552,1,1,94671.6,50038.8,1690,0.77616793,4.544302,191.94507,293.46851,2.40626,449.865,0.134579,-28.293,39.5337,28.7416
1980-01-04 13:29:10,2,-7.25333,-1.675,-0.456667,0.356889,1,1,68516.7,51453.6,1690,0.77617389,4.5442257,191.93726,293.46851,2.34994,444.78,-5.65694,-35.7704,33.6323,29.1451